Home   Weather   Angers   Past weeks

Flag for France Past Weather in Angers, Pays de la Loire, France — Yesterday and Last 2 Weeks

Now
43 °F

Overcast.


Feels Like: 40 °F
Forecast: 32 / 42 °F
Wind: 5 mph from Northeast

Location: Le Mans Airport

Current Time: Dec 2, 2016 at 9:07:01 pm

Latest Report: Dec 2, 2016 at 8:30 pm


Visibility: N/A

Pressure: 30.18 "Hg

Humidity: 76%

Dew Point: 36 °F

Location of AngersLocation

Past Weather in Angers — Graph

°F

Angers Temperature Yesterday

Maximum temperature yesterday: 48 °F (at 3:00 pm)
Minimum temperature yesterday: 25 °F (at 6:30 am)
Average temperature yesterday: 34 °F

High & Low Weather Summary for the Past Weeks

 TemperatureHumidityPressure
High59 °F (Nov 21, 3:00 pm)100% (Nov 22, 10:30 pm)30.57 "Hg (Nov 22, 10:30 pm)
Low25 °F (Dec 1, 6:30 am)34% (Nov 28, 2:00 pm)29.21 "Hg (Nov 21, 8:30 am)
Average46 °F80%29.94 "Hg
* Reported Nov 17 7:00 pm — Dec 2 7:30 pm, Angers, Weather by CustomWeather, © 2016

Note: Actual official high and low records may vary slightly from our data, if they occured in-between our weather recording intervals... More about our weather records

Advertising

Angers Weather History for the Previous 24 Hours

Scroll right to see more
 ConditionsComfort  
Time TempWeatherWind HumidityBarometerVisibility
7:30 pm
Fri, Dec 2
41 °FOvercast.3 mph81%30.18 "HgN/A
7:00 pm41 °FPassing clouds.5 mph81%30.18 "HgN/A
6:00 pm41 °FClear.6 mph76%30.18 "Hg10 mi
5:30 pm43 °FClear.7 mph71%30.18 "Hg10 mi
5:00 pm45 °FSunny.5 mph66%30.18 "Hg10 mi
4:30 pm46 °FPassing clouds.8 mph62%30.18 "HgN/A
4:00 pm46 °FSunny.8 mph71%30.21 "Hg10 mi
3:30 pm46 °FSunny.10 mph71%30.21 "Hg10 mi
3:00 pm46 °FPassing clouds.10 mph71%30.21 "HgN/A
2:30 pm46 °FSunny.8 mph76%30.21 "Hg10 mi
2:00 pm45 °FScattered clouds.8 mph81%30.24 "HgN/A
1:30 pm43 °FOvercast.7 mph87%30.24 "Hg5 mi
1:00 pm41 °FFog.6 mph87%30.24 "Hg3 mi
12:30 pm39 °FFog.7 mph93%30.27 "Hg3 mi
12:00 pm39 °FFog.8 mph93%30.27 "Hg3 mi
11:30 am39 °FFog.7 mph93%30.27 "Hg3 mi
11:00 am39 °FPartly sunny.5 mph100%30.30 "Hg4 mi
10:30 am39 °FFog.6 mph93%30.30 "Hg3 mi
10:00 am37 °FFog.No wind100%30.30 "Hg3 mi
9:30 am37 °FFog.2 mph93%30.30 "Hg3 mi
9:00 am36 °FFog.2 mph100%30.30 "Hg3 mi
8:30 am36 °FFog.2 mph93%30.30 "Hg2 mi
8:00 am34 °FFog.5 mph100%30.27 "Hg2 mi
7:30 am34 °FFog.3 mph93%30.27 "Hg2 mi
7:00 am34 °FDense fog.5 mph93%30.27 "Hg1 mi
6:30 am34 °FFog.6 mph93%30.30 "Hg1 mi
6:00 am34 °FFog.6 mph93%30.30 "Hg1 mi
5:30 am34 °FFog.6 mph93%30.30 "Hg1 mi
5:00 am34 °FFog.5 mph93%30.30 "Hg1 mi
4:30 am34 °FFog.7 mph93%30.30 "Hg1 mi
4:00 am32 °FFog.5 mph100%30.30 "Hg0 mi
3:30 am34 °FFog.3 mph93%30.30 "Hg1 mi
3:00 am32 °FIce fog.2 mph93%30.33 "Hg1 mi
2:30 am32 °FFog.2 mph100%30.33 "Hg0 mi
2:00 am32 °FIce fog.2 mph93%30.33 "Hg1 mi
1:30 am32 °FIce fog.3 mph93%30.33 "Hg1 mi
1:00 am30 °FIce fog.3 mph100%30.33 "Hg1 mi
12:30 am30 °FIce fog.3 mph100%30.36 "Hg1 mi
12:00 am27 °FIce fog.No wind93%30.36 "Hg3 mi
11:30 pm
Thu, Dec 1
27 °FIce fog.No wind93%30.36 "Hg2 mi
11:00 pm28 °FIce fog.No wind93%30.36 "Hg3 mi
10:30 pm28 °FIce fog.No wind93%30.36 "Hg3 mi
10:00 pm28 °FIce fog.1 mph93%30.36 "Hg3 mi
9:30 pm30 °FIce fog.1 mph93%30.36 "Hg3 mi
9:00 pm30 °FIce fog.1 mph93%30.36 "Hg3 mi
Weather by CustomWeather, © 2016

See weather overviewHow to use our weather pages